Location: Newark
(9.4667°S, 159.8167°E)
Time: 10:13:41
(UTC+00:00)

Transit 2A Rocket - All Passes

Search period start: 20 November 2019 00:00
Search period end: 30 November 2019 00:00
Orbit: 594 x 909 km, 66.7° (Epoch: 19 November)

Date Brightness Start Highest point End Pass type
(mag) Time Alt. Az. Time Alt. Az. Time Alt. Az.
20 Nov - 08:14:37 10° S 08:19:52 37° ESE 08:24:41 10° NE visible
20 Nov - 09:58:54 10° WSW 10:02:00 15° WNW 10:04:59 10° NW visible
20 Nov - 20:48:49 10° N 20:53:30 43° ENE 20:58:39 10° SE daylight
20 Nov - 22:33:58 10° W 22:36:10 13° WSW 22:38:27 10° SW daylight
21 Nov - 07:33:19 10° SSE 07:37:12 19° ESE 07:40:52 10° ENE daylight
21 Nov - 09:14:46 10° SW 09:19:42 32° WNW 09:24:15 10° N visible
21 Nov - 20:07:31 10° NNE 20:11:11 21° ENE 20:15:05 10° ESE daylight
21 Nov - 21:49:15 10° WNW 21:53:28 26° WSW 21:58:01 10° S daylight
22 Nov - 08:31:41 10° SSW 08:37:20 67° WNW 08:42:26 10° NNE visible
22 Nov - 21:05:57 10° NW 21:10:51 53° WSW 21:16:16 10° S daylight
23 Nov - 07:49:15 10° S 07:54:51 59° ESE 07:59:56 10° NNE visible
23 Nov - 20:23:23 10° NNW 20:28:22 73° ENE 20:33:52 10° SSE daylight
24 Nov - 07:07:24 10° S 07:12:15 29° ESE 07:16:45 10° NE daylight
24 Nov - 08:50:37 10° WSW 08:54:30 20° WNW 08:58:10 10° NNW visible
24 Nov - 19:41:30 10° N 19:45:58 34° ENE 19:50:52 10° SE daylight
24 Nov - 21:25:17 10° WNW 21:28:31 16° WSW 21:31:56 10° SSW daylight
25 Nov - 06:26:35 10° SSE 06:29:33 14° ESE 06:32:23 10° E daylight
25 Nov - 08:06:57 10° SW 08:12:11 41° WNW 08:16:57 10° N visible
25 Nov - 19:00:38 10° NE 19:03:40 16° ENE 19:06:51 10° ESE daylight
25 Nov - 20:41:16 10° NW 20:45:50 33° WSW 20:50:49 10° S daylight
26 Nov - 07:24:07 10° SSW 07:29:46 86° WNW 07:34:54 10° NNE daylight
26 Nov - 19:58:14 10° NNW 20:03:16 70° WSW 20:08:49 10° SSE daylight
27 Nov - 06:41:51 10° S 06:47:15 45° ESE 06:52:11 10° NE daylight
27 Nov - 08:27:35 10° W 08:29:18 11° WNW 08:30:58 10° NW visible
27 Nov - 19:15:54 10° N 19:20:49 56° ENE 19:26:15 10° SSE daylight
28 Nov - 06:00:17 10° SSE 06:04:37 23° ESE 06:08:41 10° ENE daylight
28 Nov - 07:42:34 10° SW 07:47:00 25° WNW 07:51:08 10° NNW visible
28 Nov - 18:34:16 10° NNE 18:38:28 26° ENE 18:42:59 10° SE daylight
28 Nov - 20:16:58 10° WNW 20:20:52 21° WSW 20:25:02 10° SSW daylight
29 Nov - 05:20:32 10° SE 05:21:53 11° ESE 05:23:12 10° ESE daylight
29 Nov - 06:59:14 10° SSW 07:04:39 53° WNW 07:09:35 10° N daylight
29 Nov - 17:54:10 10° NE 17:56:10 12° ENE 17:58:13 10° E visible
29 Nov - 19:33:23 10° NW 19:38:14 43° WSW 19:43:32 10° S daylight
